Location: Harbor View
(36.2448°N, 86.5797°W)
Time: 08:46:07
(UTC+00:00)

Cosmos 1340 - Pass Details

Date: 29 October 2020
Orbit: 501 x 504 km, 81.2° (Epoch: 04 December)

Event Time Altitude Azimuth Distance (km) Brightness Sun altitude
Rises 23:42:29 0° 353° (N) 2,612 6.3 -10.6°
Reaches altitude 10° 23:44:38 10° 356° (N) 1,723 5.3 -11.0°
Maximum altitude 23:48:24 73° 80° (E) 533 2.5 -11.8°
Drops below altitude 10° 23:52:09 10° 166° (SSE) 1,710 5.3 -12.5°
Sets 23:54:16 0° 169° (SSE) 2,589 6.2 -13.0°
